Theta_e
311 312 312 311 311 311 311 310 308 308 310 313 315 315 316 314 311 314 317 318 318 318 319 319 319 318 318 317 317 314 306 307 313 316 315 316 316 318 318 318 318 318 318 318 319
313 312 313 312 311 311 310 310 308 309 311 315 316 318 321 316 314 317 318 318 318 318 318 318 318 319 318 317 316 311 309 313 312 316 315 315 316 317 317 316 317 318 319 319 319
312 311 312 312 311 310 311 310 309 310 313 315 317 318 319 316 314 317 318 318 318 318 318 318 317 318 317 316 317 315 313 314 316 317 317 315 315 317 317 315 318 318 319 319 319
310 311 312 312 311 311 311 311 310 312 315 316 318 320 318 316 313 318 318 318 318 317 317 317 317 317 313 314 316 316 316 315 316 317 317 315 316 316 316 317 318 318 318 319 319
311 312 312 312 313 312 311 312 312 312 315 318 319 321 321 316 317 317 317 317 317 318 318 318 317 317 314 314 315 315 315 316 318 318 318 317 315 315 316 316 316 316 317 318 318
312 312 315 315 313 311 311 313 315 316 317 317 319 320 318 316 318 318 317 317 317 317 318 317 318 318 317 315 314 316 315 316 318 317 317 315 314 315 316 316 316 316 316 316 316
314 315 315 314 312 311 312 312 315 316 317 317 318 321 320 317 317 318 317 317 317 316 316 317 317 318 318 314 316 316 315 314 315 316 314 315 313 314 315 316 316 316 316 316 316
314 315 315 313 312 312 313 313 314 316 315 316 317 317 321 320 317 317 316 316 317 317 317 317 317 317 317 317 316 315 313 315 314 312 314 314 312 312 315 315 315 315 316 316 316
313 313 315 313 312 314 314 314 313 313 313 314 315 316 319 320 318 317 317 317 317 317 316 316 316 317 316 313 311 310 314 314 312 312 312 313 312 312 315 314 315 316 316 315 316
312 313 314 314 317 319 319 318 318 320 316 316 320 318 319 320 318 317 317 317 318 317 317 316 315 310 308 310 313 313 312 310 310 311 311 312 311 311 315 315 315 316 315 317 319
307 312 313 315 317 318 319 318 318 318 318 317 316 317 320 319 317 317 317 317 318 316 313 314 311 313 313 312 312 313 311 311 312 311 313 311 311 311 313 314 314 314 319 319 319
308 308 313 314 317 319 320 319 319 318 318 318 318 318 316 318 319 319 318 317 316 314 313 312 313 313 313 314 314 314 314 313 312 314 313 312 313 311 312 313 314 319 318 319 319
309 308 313 318 319 318 318 319 318 320 317 317 320 318 317 320 320 319 317 317 315 314 314 313 315 315 315 315 315 314 314 313 313 313 311 311 313 313 312 314 318 318 318 318 319
309 308 310 318 319 319 320 319 318 320 317 323 321 319 319 319 317 317 318 317 315 314 314 313 314 316 316 315 315 315 314 313 313 312 311 312 313 313 312 315 316 318 319 318 319
309 309 309 315 319 320 319 319 318 321 322 323 318 317 317 316 317 319 317 317 315 315 314 315 316 316 315 315 314 314 313 312 312 311 312 311 309 310 314 317 316 316 319 318 317
308 309 309 314 321 320 318 316 320 321 324 318 317 315 315 317 317 319 319 319 318 316 315 314 317 315 315 314 313 313 311 310 308 308 309 312 312 312 313 317 317 318 318 318 316
308 309 311 317 322 319 313 321 321 320 318 317 316 314 315 317 317 318 317 316 315 316 316 315 315 315 315 314 312 311 309 308 310 309 311 311 313 312 311 316 317 318 317 316 314
309 310 310 311 316 316 317 318 325 319 315 316 316 315 317 317 317 317 316 315 317 315 313 316 317 316 316 314 314 312 310 308 312 312 313 312 315 314 313 316 317 317 315 314 313
316 316 317 319 316 316 319 318 315 316 316 317 316 317 316 317 317 316 316 316 318 316 317 315 317 315 315 314 313 312 309 310 308 311 315 313 313 312 315 315 316 315 314 312 312
322 322 321 317 317 318 319 322 317 317 317 317 316 317 317 317 317 315 316 317 318 317 315 314 315 314 315 313 312 313 311 311 308 314 319 314 313 314 312 313 312 313 312 312 312
322 323 319 316 316 322 319 319 316 318 318 317 316 317 317 317 317 316 316 316 318 317 315 314 310 314 314 314 312 312 311 314 315 318 318 317 313 308 312 312 311 311 312 312 311
318 316 316 318 317 312 314 316 316 318 318 317 316 317 317 316 315 316 316 316 315 315 315 314 310 312 314 313 312 311 311 311 308 313 311 316 316 312 310 312 313 313 313 311 311
315 318 316 316 310 310 312 316 317 317 316 314 316 314 315 315 312 315 317 316 315 314 313 312 308 307 313 310 310 313 312 311 312 312 317 318 315 312 313 314 313 312 311 311 311
312 310 312 311 311 311 312 314 315 315 315 313 314 313 312 312 312 312 312 313 315 314 315 316 310 312 314 312 311 313 314 315 315 317 316 315 315 314 314 312 311 311 311 310 310
308 309 308 305 307 310 310 311 313 312 312 312 311 311 311 311 311 311 313 313 313 313 314 312 312 310 312 313 314 314 315 315 316 316 317 316 316 315 313 309 310 310 309 309 308
308 305 306 307 310 308 307 310 312 311 311 311 311 310 310 311 311 311 312 311 310 310 311 307 311 312 313 313 314 316 315 316 315 316 316 316 315 312 310 310 309 308 308 306 305
303 306 307 306 308 306 308 309 310 309 310 312 309 308 310 311 312 311 311 311 311 309 308 308 310 311 312 315 317 317 316 316 315 314 311 314 313 308 309 308 308 307 305 305 304
Wind_Speed
9 10 10 10 10 9 9 9 8 6 9 10 10 12 12 13 12 13 13 14 17 19 21 13 12 3 5 3 1 1 5 1 3 4 6 5 5 5 5 10 8 9 7 8 7
10 9 10 10 11 10 9 8 8 8 11 11 10 8 10 15 18 17 15 17 19 20 22 22 19 12 10 6 4 5 4 6 4 2 3 7 5 12 4 8 10 19 9 11 14
11 10 10 11 11 11 9 7 7 10 12 10 7 7 8 7 13 11 15 17 16 18 20 21 20 8 7 6 10 2 3 4 2 4 15 6 6 6 3 9 24 20 25 20 16
12 11 10 11 12 11 7 6 7 10 10 7 7 8 9 6 4 10 11 12 14 15 14 17 21 6 5 4 10 2 1 3 7 17 15 7 10 6 4 15 25 27 27 24 20
12 12 11 12 11 9 6 7 9 9 8 7 7 8 7 8 7 10 12 13 15 9 16 16 16 8 4 4 7 3 4 17 21 21 18 10 12 5 5 24 21 21 21 18 18
12 12 12 13 11 8 7 8 9 8 6 6 8 10 7 5 9 8 8 9 11 11 10 12 9 11 2 3 1 6 11 16 15 14 6 5 7 4 11 19 23 24 23 21 20
12 12 13 12 11 9 8 6 5 4 3 4 7 9 3 5 3 1 4 6 9 9 11 11 12 8 8 7 5 6 7 9 5 4 4 8 8 7 10 20 24 29 31 31 31
11 11 12 11 10 8 7 5 3 2 3 5 7 11 4 3 2 2 6 7 7 6 9 12 11 11 3 3 7 6 4 5 7 8 4 5 8 5 8 17 21 25 29 30 31
8 8 9 9 10 10 8 4 2 3 4 7 9 7 4 3 5 2 4 5 6 7 10 11 6 1 2 3 5 6 4 5 9 5 4 2 8 7 13 13 22 27 29 30 33
8 5 5 6 7 9 9 6 3 6 7 9 7 4 4 8 5 5 3 9 6 10 8 9 3 3 3 5 4 7 4 5 7 6 6 7 11 3 15 17 22 25 28 24 26
12 4 2 3 5 5 8 4 7 1 13 15 15 15 19 5 7 14 11 9 9 4 2 5 6 2 6 5 7 5 4 7 5 9 3 7 11 4 13 14 18 22 21 23 22
14 6 1 2 3 3 5 6 7 8 10 15 16 18 18 16 11 15 10 4 4 4 1 6 2 8 5 5 2 4 3 5 5 5 5 10 19 7 6 7 16 6 15 19 25
15 6 2 5 1 5 8 7 7 12 3 9 3 4 5 6 9 17 7 8 5 3 5 5 8 4 3 4 5 3 1 5 7 4 6 6 17 6 5 3 5 7 14 19 19
15 8 4 6 4 3 4 5 10 8 4 4 1 4 4 4 4 10 14 12 3 8 4 5 4 0 1 2 2 4 2 5 10 6 5 3 14 3 1 4 3 11 13 18 20
16 10 3 9 5 1 6 9 6 4 3 3 2 3 12 1 8 19 7 2 4 5 5 10 3 2 2 3 2 5 5 5 9 5 3 5 3 6 3 2 5 8 7 15 17
16 10 4 7 7 5 10 4 1 5 0 4 3 7 7 11 5 14 11 8 8 2 2 4 4 3 3 2 4 5 5 6 4 3 1 3 4 5 4 4 5 4 10 7 13
14 9 3 7 4 8 9 1 4 4 4 5 3 5 1 5 5 6 6 7 3 6 4 6 5 2 4 3 3 10 6 4 6 4 5 3 4 9 6 7 6 4 6 5 6
12 3 4 7 2 8 4 4 4 3 2 2 3 4 3 7 3 7 6 6 4 3 1 1 6 3 3 2 3 2 5 4 5 3 6 5 6 6 8 7 7 5 3 3 11
9 5 6 3 6 9 4 5 4 1 2 3 4 4 4 5 3 6 5 2 2 2 2 3 4 4 5 3 4 2 1 3 1 2 4 4 6 8 6 9 8 11 5 9 12
7 6 7 5 9 7 4 1 2 4 1 3 2 1 2 4 5 7 4 3 4 1 2 4 6 4 1 3 2 3 4 0 2 3 5 4 5 7 6 9 9 7 10 14 18
5 4 5 7 8 4 3 1 2 6 7 2 4 3 3 2 1 2 4 7 5 4 2 2 3 5 2 4 7 2 2 1 3 3 3 4 6 5 11 13 7 9 13 14 22
6 4 13 7 4 3 1 5 5 3 8 3 3 1 3 2 2 4 6 7 10 1 3 1 3 4 10 10 4 6 7 6 4 5 5 5 14 12 9 4 9 20 19 20 26
7 5 10 6 4 4 8 6 4 6 4 5 2 2 2 1 4 4 4 7 20 3 4 2 2 4 10 5 1 3 5 5 3 3 10 8 8 4 9 13 19 17 17 24 29
7 4 6 11 8 3 4 5 6 11 1 6 3 5 3 3 5 5 8 7 5 16 23 6 5 8 10 15 4 11 13 14 6 4 10 14 22 23 17 11 14 18 25 28 34
7 4 4 4 5 6 2 5 5 7 8 9 5 4 4 4 4 5 3 5 9 18 4 6 8 7 14 18 15 18 21 18 15 18 11 21 21 20 13 7 9 19 20 25 34
5 6 5 4 9 6 5 4 3 5 3 4 3 7 6 5 6 6 4 4 9 3 4 1 7 3 10 15 14 17 18 22 20 16 14 12 14 4 8 12 15 22 29 35 40
10 7 4 3 5 2 0 3 5 5 8 4 6 5 5 6 12 23 28 30 21 6 3 4 3 1 5 4 8 9 11 11 4 3 4 8 15 3 11 13 25 30 37 39 39
Wind_Direction
49 54 55 49 39 28 20 20 29 75 121 120 104 89 65 56 75 100 74 54 36 30 28 33 39 3 3 28 79 126 60 38 310 28 275 301 352 4 344 342 339 346 332 342 4
54 56 51 43 33 26 22 24 40 94 120 121 107 76 52 74 86 86 66 44 30 30 29 29 20 54 49 41 46 71 96 216 224 276 330 327 330 322 338 316 320 329 335 338 326
55 55 45 34 27 21 22 36 67 106 123 120 90 44 40 106 81 70 61 47 36 27 28 21 21 43 52 46 16 1 136 210 300 21 346 311 303 313 328 320 314 311 312 313 314
50 50 41 28 20 17 29 60 90 114 116 97 62 39 44 54 90 84 68 50 35 31 20 17 16 42 44 24 349 20 9 65 313 329 338 320 312 291 248 298 320 313 306 298 291
49 44 32 22 18 23 56 83 103 111 106 88 44 28 48 66 103 75 58 37 25 32 30 17 21 24 6 342 353 52 323 325 324 323 323 328 336 315 324 359 349 346 342 319 300
42 38 31 21 27 49 75 98 109 110 98 60 37 28 44 62 101 61 39 26 24 20 10 2 351 355 349 346 71 313 303 299 311 319 315 13 316 21 324 0 353 353 348 340 333
35 36 30 32 45 68 81 103 114 110 59 28 10 4 356 57 104 35 24 22 6 20 348 341 330 318 317 332 347 315 326 335 3 9 301 357 330 320 332 343 339 338 333 329 321
27 30 32 43 54 70 71 78 98 100 1 352 338 335 302 250 312 4 358 357 29 24 336 333 325 278 240 288 351 360 47 4 294 330 320 66 277 263 322 330 320 331 330 322 319
11 23 32 52 69 64 52 36 349 295 311 319 315 329 297 289 246 282 13 9 12 353 350 357 347 299 29 60 2 2 261 277 312 283 312 180 262 254 311 312 318 324 327 323 319
356 2 29 60 76 59 44 28 307 262 284 306 296 299 240 336 249 280 274 309 297 309 333 352 15 67 43 68 292 276 265 256 255 283 215 255 261 262 310 313 313 317 321 321 316
0 336 9 85 102 67 46 32 22 27 307 275 265 270 279 288 273 269 290 300 237 273 22 355 47 295 248 211 227 254 230 248 267 262 281 240 270 265 254 291 302 315 345 338 332
1 341 270 159 128 48 25 43 41 336 303 294 270 265 263 273 292 306 273 212 183 242 89 14 268 237 249 278 262 284 286 314 304 355 318 292 285 267 214 234 284 2 358 355 355
1 353 191 162 119 84 68 60 2 341 315 303 337 272 286 247 247 283 261 216 182 200 228 163 245 304 314 2 23 330 116 294 271 302 262 284 280 283 263 309 318 331 345 350 351
353 354 205 188 161 140 16 6 344 344 55 288 31 24 355 253 284 316 289 238 195 207 235 219 288 277 341 131 98 316 285 320 307 326 280 160 290 217 332 320 300 335 358 356 356
342 338 246 205 188 205 321 309 323 307 40 310 33 31 3 69 16 6 10 281 219 227 107 244 280 297 159 218 220 238 329 265 287 255 334 285 356 263 351 316 307 304 352 10 21
333 327 267 209 193 277 310 309 359 47 254 344 35 3 18 3 11 4 11 18 317 349 342 256 288 83 180 275 111 266 340 349 44 86 3 263 99 267 277 234 291 305 56 24 6
333 323 274 198 211 297 316 217 45 112 343 355 337 351 124 343 12 24 349 3 25 2 344 329 312 103 35 4 354 37 41 332 346 360 233 261 320 243 264 254 237 288 48 72 46
345 3 125 137 250 320 340 56 83 55 356 22 334 341 73 18 18 352 8 354 7 91 162 128 315 332 353 151 272 281 149 161 258 235 268 313 239 253 227 266 307 284 143 12 347
13 111 123 99 343 334 338 61 181 243 276 347 328 53 344 14 351 12 330 259 162 49 63 316 260 277 304 148 119 274 167 189 200 248 274 243 282 315 271 289 288 336 325 322 331
66 83 81 5 340 325 66 149 134 343 117 78 93 339 298 311 22 5 328 289 337 174 160 249 288 252 237 13 14 138 180 39 15 288 255 267 266 245 295 280 280 290 289 306 325
33 76 6 337 322 330 107 217 312 20 352 189 212 245 232 279 223 259 259 299 35 305 318 120 140 271 260 215 223 319 311 131 136 218 279 290 258 219 287 294 274 276 278 297 317
27 55 9 334 24 20 40 321 318 340 346 296 111 139 232 273 261 248 231 217 358 60 324 276 187 256 249 259 261 183 204 175 129 264 230 270 275 254 251 259 306 292 288 302 321
9 346 13 29 58 345 327 319 336 348 5 26 54 73 350 266 333 238 259 286 311 11 323 234 295 333 313 352 7 188 194 208 177 162 240 266 272 242 282 297 275 255 292 317 316
5 9 18 62 75 85 353 314 333 347 61 357 323 47 344 260 223 273 285 293 305 301 293 220 200 195 253 262 230 272 262 269 233 240 273 258 278 284 287 281 284 302 316 315 312
33 60 17 324 353 352 326 357 350 0 337 13 3 30 307 279 268 247 279 296 281 283 282 161 234 198 251 261 271 268 277 276 257 256 256 275 278 281 294 293 297 302 304 300 299
39 11 347 309 320 342 5 13 341 329 268 302 23 317 294 246 231 281 263 250 247 294 226 203 275 233 277 268 257 262 268 267 271 271 261 272 281 315 319 307 303 311 311 308 305
28 360 333 334 352 33 211 319 321 2 299 320 327 298 273 269 305 294 283 270 260 282 232 208 221 51 263 331 319 286 255 257 262 270 197 281 284 4 324 314 311 315 311 303 298